When you browse on this site, cookies collect data to enhance your experience and personalize the content and advertising you see.
Visit our Privacy Policy to learn more. By continuing to use the site, you agree to this use of cookies and data.

Hourly Weather Nesebyr

Today, 2 July, Thursday

Time Temperature Precipitation Wind Pressure Humidity
00:00 +23°C° 0 mm 1 mps 758 mmHg 95%
01:00 +23°C° 0 mm 1 mps 758 mmHg 95%
02:00 +23°C° 0 mm 1 mps 757 mmHg 96%
03:00 +23°C° 0 mm 1 mps 757 mmHg 96%
04:00 +23°C° 0 mm 1 mps 757 mmHg 96%
05:00 +23°C° 0 mm 1 mps 757 mmHg 95%
06:00 +24°C° 0 mm 2 mps 757 mmHg 91%
07:00 +25°C° 0 mm 2 mps 757 mmHg 86%
08:00 +27°C° 0 mm 3 mps 757 mmHg 82%
09:00 +28°C° 0 mm 3 mps 757 mmHg 76%
10:00 +29°C° 0 mm 4 mps 757 mmHg 69%
11:00 +30°C° 0 mm 4 mps 757 mmHg 63%
12:00 +30°C° 0 mm 4 mps 757 mmHg 62%
13:00 +32°C° 0 mm 4 mps 757 mmHg 60%
14:00 +32°C° 0 mm 4 mps 757 mmHg 58%
15:00 +30°C° 0 mm 4 mps 757 mmHg 60%
16:00 +30°C° 0 mm 4 mps 756 mmHg 61%
17:00 +29°C° 0 mm 4 mps 756 mmHg 62%
18:00 +27°C° 0 mm 4 mps 756 mmHg 69%
19:00 +25°C° 0 mm 3 mps 756 mmHg 76%
20:00 +22°C° 0 mm 3 mps 756 mmHg 83%
21:00 +23°C° 0 mm 2 mps 756 mmHg 85%
22:00 +21°C° 0 mm 2 mps 756 mmHg 87%
23:00 +22°C° 0 mm 1 mps 756 mmHg 89%

Tomorrow, 3 July, Friday

Time Temperature Precipitation Wind Pressure Humidity
00:00 +21°C° 0 mm 1 mps 756 mmHg 89%
01:00 +21°C° 0 mm 1 mps 756 mmHg 89%
02:00 +21°C° 0 mm 1 mps 756 mmHg 89%
03:00 +21°C° 0 mm 1 mps 756 mmHg 89%
04:00 +20°C° 0 mm 1 mps 755 mmHg 89%
05:00 +20°C° 0 mm 1 mps 755 mmHg 89%
06:00 +22°C° 0 mm 1 mps 755 mmHg 83%
07:00 +24°C° 0 mm 1 mps 755 mmHg 77%
08:00 +26°C° 0 mm 1 mps 756 mmHg 71%
09:00 +28°C° 0 mm 2 mps 756 mmHg 65%
10:00 +29°C° 0 mm 2 mps 756 mmHg 59%
11:00 +30°C° 0 mm 3 mps 756 mmHg 52%
12:00 +31°C° 0 mm 3 mps 755 mmHg 52%
13:00 +31°C° 0 mm 3 mps 755 mmHg 52%
14:00 +33°C° 0 mm 3 mps 755 mmHg 51%
15:00 +31°C° 0 mm 3 mps 755 mmHg 54%
16:00 +31°C° 0 mm 3 mps 755 mmHg 57%
17:00 +30°C° 0 mm 3 mps 755 mmHg 60%
18:00 +28°C° 0 mm 3 mps 755 mmHg 69%
19:00 +26°C° 0 mm 2 mps 755 mmHg 78%
20:00 +24°C° 0 mm 2 mps 755 mmHg 87%
21:00 +23°C° 0 mm 1 mps 755 mmHg 88%
22:00 +23°C° 0 mm 1 mps 756 mmHg 89%
23:00 +20°C° 0 mm 0 mps 756 mmHg 90%

Day after tomorrow, 4 July, Saturday

Time Temperature Precipitation Wind Pressure Humidity
00:00 +22°C° 0 mm 1 mps 756 mmHg 90%
01:00 +22°C° 0 mm 1 mps 756 mmHg 90%
02:00 +21°C° 0 mm 1 mps 756 mmHg 90%
03:00 +21°C° 0 mm 1 mps 756 mmHg 90%
04:00 +21°C° 0 mm 1 mps 756 mmHg 90%
05:00 +21°C° 0 mm 1 mps 756 mmHg 90%
06:00 +23°C° 0 mm 1 mps 756 mmHg 84%
07:00 +25°C° 0 mm 1 mps 756 mmHg 77%
08:00 +27°C° 0 mm 1 mps 757 mmHg 70%
09:00 +29°C° 0 mm 1 mps 757 mmHg 64%
10:00 +30°C° 0 mm 2 mps 757 mmHg 58%
11:00 +32°C° 0 mm 2 mps 757 mmHg 51%
12:00 +33°C° 0 mm 3 mps 756 mmHg 50%
13:00 +34°C° 0 mm 3 mps 756 mmHg 48%
14:00 +34°C° 0 mm 3 mps 756 mmHg 47%
15:00 +33°C° 0 mm 3 mps 756 mmHg 49%
16:00 +33°C° 0 mm 3 mps 755 mmHg 52%
17:00 +31°C° 0 mm 3 mps 755 mmHg 55%
18:00 +29°C° 0 mm 3 mps 755 mmHg 63%
19:00 +27°C° 0 mm 2 mps 755 mmHg 72%
20:00 +25°C° 0 mm 1 mps 755 mmHg 80%
21:00 +24°C° 0 mm 1 mps 755 mmHg 82%
22:00 +24°C° 0 mm 1 mps 755 mmHg 83%
23:00 +21°C° 0 mm 0 mps 756 mmHg 85%

5 July, Sunday

Time Temperature Precipitation Wind Pressure Humidity
00:00 +23°C° 0 mm 1 mps 755 mmHg 85%
01:00 +22°C° 0 mm 1 mps 755 mmHg 86%
02:00 +22°C° 0 mm 1 mps 755 mmHg 86%
03:00 +22°C° 0 mm 1 mps 755 mmHg 87%
04:00 +22°C° 0 mm 1 mps 755 mmHg 88%
05:00 +22°C° 0 mm 1 mps 755 mmHg 88%
06:00 +24°C° 0 mm 2 mps 755 mmHg 81%
07:00 +26°C° 0 mm 2 mps 755 mmHg 73%
08:00 +28°C° 0 mm 2 mps 755 mmHg 66%
09:00 +29°C° 0 mm 3 mps 755 mmHg 61%
10:00 +30°C° 0 mm 4 mps 755 mmHg 56%
11:00 +33°C° 0 mm 4 mps 755 mmHg 51%
12:00 +33°C° 0 mm 4 mps 755 mmHg 48%
13:00 +34°C° 0 mm 5 mps 754 mmHg 46%
14:00 +34°C° 0 mm 5 mps 754 mmHg 43%
15:00 +34°C° 0 mm 5 mps 754 mmHg 45%
16:00 +33°C° 0 mm 5 mps 754 mmHg 47%
17:00 +32°C° 0 mm 5 mps 754 mmHg 49%
18:00 +29°C° 0 mm 4 mps 754 mmHg 57%
19:00 +27°C° 0 mm 3 mps 754 mmHg 66%
20:00 +25°C° 0 mm 2 mps 754 mmHg 74%
21:00 +24°C° 0 mm 2 mps 754 mmHg 76%
22:00 +24°C° 0 mm 2 mps 754 mmHg 78%
23:00 +23°C° 0 mm 1 mps 754 mmHg 80%

6 July, Monday

Time Temperature Precipitation Wind Pressure Humidity
00:00 +23°C° 0 mm 2 mps 754 mmHg 81%
01:00 +23°C° 0 mm 2 mps 754 mmHg 82%
02:00 +23°C° 0 mm 2 mps 754 mmHg 83%
03:00 +21°C° 0 mm 2 mps 754 mmHg 84%
04:00 +21°C° 0 mm 2 mps 754 mmHg 84%
05:00 +21°C° 0 mm 3 mps 754 mmHg 84%
06:00 +24°C° 0 mm 3 mps 754 mmHg 76%
07:00 +26°C° 0 mm 3 mps 754 mmHg 68%
08:00 +28°C° 0 mm 3 mps 755 mmHg 60%
09:00 +30°C° 0 mm 4 mps 755 mmHg 57%
10:00 +32°C° 0 mm 5 mps 755 mmHg 54%
11:00 +34°C° 0 mm 6 mps 755 mmHg 50%
12:00 +34°C° 0 mm 6 mps 754 mmHg 50%
13:00 +35°C° 0 mm 7 mps 754 mmHg 50%
14:00 +35°C° 0 mm 7 mps 754 mmHg 50%
15:00 +34°C° 0 mm 7 mps 754 mmHg 54%
16:00 +33°C° 0 mm 7 mps 753 mmHg 58%
17:00 +32°C° 0 mm 7 mps 753 mmHg 62%
18:00 +29°C° 0 mm 6 mps 753 mmHg 70%
19:00 +28°C° 0 mm 4 mps 753 mmHg 78%
20:00 +26°C° 0 mm 3 mps 753 mmHg 86%
21:00 +25°C° 0 mm 3 mps 753 mmHg 87%
22:00 +25°C° 0 mm 3 mps 753 mmHg 88%
23:00 +24°C° 0 mm 2 mps 753 mmHg 89%

7 July, Tuesday

Time Temperature Precipitation Wind Pressure Humidity
00:00 +24°C° 0 mm 2 mps 753 mmHg 89%
01:00 +24°C° 0 mm 2 mps 753 mmHg 88%
02:00 +23°C° 0 mm 1 mps 752 mmHg 87%
03:00 +23°C° 0 mm 2 mps 752 mmHg 86%
04:00 +23°C° 0 mm 2 mps 752 mmHg 85%
05:00 +23°C° 0 mm 2 mps 752 mmHg 84%
06:00 +25°C° 0 mm 2 mps 752 mmHg 77%
07:00 +27°C° 0 mm 2 mps 752 mmHg 70%
08:00 +29°C° 0 mm 2 mps 752 mmHg 63%
09:00 +30°C° 0 mm 3 mps 752 mmHg 58%
10:00 +33°C° 0 mm 4 mps 752 mmHg 53%
11:00 +35°C° 0 mm 4 mps 752 mmHg 47%
12:00 +35°C° 0 mm 4 mps 752 mmHg 46%
13:00 +36°C° 0 mm 4 mps 752 mmHg 44%
14:00 +36°C° 0 mm 5 mps 751 mmHg 42%
15:00 +35°C° 0 mm 4 mps 751 mmHg 45%
16:00 +35°C° 0 mm 4 mps 751 mmHg 48%
17:00 +34°C° 0 mm 3 mps 751 mmHg 51%
18:00 +31°C° 0 mm 2 mps 751 mmHg 58%
19:00 +29°C° 0 mm 2 mps 751 mmHg 64%
20:00 +27°C° 0 mm 1 mps 751 mmHg 71%
21:00 +26°C° 0.2 mm 1 mps 752 mmHg 72%
22:00 +26°C° 0.2 mm 1 mps 752 mmHg 74%
23:00 +25°C° 0.2 mm 1 mps 752 mmHg 76%
Show more